Regional Weather Roundup
Issued by NWS

Home | Current Version | Previous Version | Graphics & Text | Print | Product List | Glossary On
Versions: 1 2 3 4 5 6 7 8 9 10 11 12 13 14 15 16 17 18 19 20 21 22 23 24 25 26 27 28 29 30 31 32 33 34 35 36 37 38 39 40 41 42 43 44 45 46 47 48 49 50
000
ASUS43 KLOT 051403
RWRIL

ILLINOIS REGIONAL WEATHER ROUNDUP
NATIONAL WEATHER SERVICE CHICAGO/ROMEOVILLE IL
800 AM CST MON DEC 05 2016

NOTE: "FAIR" INDICATES FEW OR NO CLOUDS BELOW 12,000 FEET WITH NO
SIGNIFICANT WEATHER AND/OR OBSTRUCTIONS TO VISIBILITY.

* THESE STATIONS ARE NOT UNDER NWS QUALITY CONTROL. THEY ALSO MAY NOT
  REPORT WEATHER SUCH AS PRECIPITATION OR FOG.

ILZ001-002-007-009-015-016-024-051500-
NORTHWEST ILLINOIS

CITY           SKY/WX    TMP DP  RH WIND       PRES   REMARKS
MOLINE         FOG       32  30  92 S9        29.98R VSB 1/2 WCI  24
STERLING*      FOG       32  31  96 S5        30.00S VSB 3/4 WCI  27
SAVANNA*       CLOUDY    32  32  99 S10       29.98R FOG     WCI  24
$$

ILZ003-004-008-010-011-017-018-051500-
NORTH CENTRAL ILLINOIS

CITY           SKY/WX    TMP DP  RH WIND       PRES   REMARKS
ROCKFORD       CLOUDY    33  31  92 S9        30.00S FOG     WCI  25
FREEPORT*      FOG       31  31  99 S8        29.99R VSB 3/4 WCI  24
ROCHELLE*      FOG       31  31  99 S10       30.00S VSB 1/2 WCI  22
$$

ILZ005-006-012>014-019>023-051500-
NORTHEAST ILLINOIS

CITY           SKY/WX    TMP DP  RH WIND       PRES   REMARKS
CHICAGO-OHARE  CLOUDY    32  30  92 SW6       30.01R WCI  26
CHICAGO-MIDWAY CLOUDY    33  30  88 SW9       30.01F WCI  25
AURORA         CLOUDY    33  30  88 S7        30.01S FOG     WCI  27
LANSING*       CLOUDY    32  32 100 SW3       30.03S FOG
WAUKEGAN       CLOUDY    32  31  96 VRB5      29.99R FOG     WCI  27
DUPAGE AIRPORT CLOUDY    32  30  92 S7        30.00S FOG     WCI  26
KANKAKEE*      CLOUDY    32  31  96 CALM      30.05F
WHEELING       CLOUDY    33  31  92 SW8       30.02R FOG     WCI  26
MORRIS*        CLOUDY    32  31  96 S6        30.02S FOG     WCI  26
NORTHERLY ISL    N/A     33  30  89 SW8         N/A  WCI  26
$$

LMZ740>746-051500-
SOUTHERN LAKE MICHIGAN

STATION/POSITION SKY/WX   TEMP    WIND        PRES    VSBY  WAVE
                          AIR SEA DIR/SP/G                  HT/PER
                          (F)     (DEG/KT/KT) (MB)    (MI)  (FT/S)
HARRISON CRIB              35     210/ 11/ 12   N/A
BURNHAM HARBOR             33     180/  5/  9   N/A
CALUMET HARBOR             32     230/  6/  9 1016.1F
BURNS HARBOR               34     210/  8/ 12 1017.6
$$

ILZ025>027-034>036-040-047-049-050-058-095>099-051500-
WEST-CENTRAL ILLINOIS

CITY           SKY/WX    TMP DP  RH WIND       PRES   REMARKS
QUINCY         FOG       32  32 100 SE6       29.99F VSB 1/4 WCI  26
GALESBURG*     FOG       32  32 100 S10       30.01R VSB 1/4 WCI  23
MACOMB*        FOG       32  32 100 S12       30.03S VSB 1/2 WCI  23
JACKSONVILLE*  MOCLDY    32  32  99 SE5       30.03S FOG     WCI  28
PITTSFIELD*    FOG       31  31 100 SE6       30.03S VSB<1/4 WCI  25
$$

ILZ028>032-037-038-041>044-048-051>054-059>061-051500-
CENTRAL ILLINOIS

CITY           SKY/WX    TMP DP  RH WIND       PRES   REMARKS
BLOOMINGTON    FOG       32  31  96 S10       30.04S VSB 1   WCI  24
DECATUR        CLOUDY    33  31  92 S7        30.07R WCI  27
PEORIA         CLOUDY    33  33 100 S9        30.03S FOG     WCI  25
LACON*         CLOUDY    31  31 100 S9        30.03R FOG     WCI  23
LINCOLN*       CLOUDY    34  34  99 S7        30.06R FOG     WCI  28
SPRINGFIELD    CLOUDY    35  34  96 SE7       30.05R FOG     WCI  29
TAYLORVILLE    CLOUDY    35  35  99 S3        30.06R FOG
$$

ILZ033-039-045-046-055>057-062-063-051500-
EAST-CENTRAL ILLINOIS

CITY           SKY/WX    TMP DP  RH WIND       PRES   REMARKS
CHAMPAIGN      CLOUDY    33  30  88 S9        30.07R WCI  25
MATTOON        CLOUDY    34  29  82 S8        30.07S WCI  27
PARIS*         CLOUDY    34  32  92 S6        30.09S WCI  29
$$

ILZ079-100>102-051500-
SOUTHWEST ILLINOIS

CITY           SKY/WX    TMP DP  RH WIND       PRES   REMARKS
ALTON          CLOUDY    36  34  93 SE3       30.06R
BELLEVILLE     CLOUDY    38  38  99 E3        30.05F
CAHOKIA*       CLOUDY    39  35  86 SE3       30.05S
SPARTA*        PTCLDY    36  33  91 E5        30.07S WCI  32
$$

ILZ064>066-069>071-074>076-080>082-084>086-088>090-092>094-051500-
SOUTH-CENTRAL ILLINOIS

CITY           SKY/WX    TMP DP  RH WIND       PRES   REMARKS
CARBONDALE     MOCLDY    36  34  92 NE6       30.07S WCI  31
CAIRO*         CLOUDY    33  33  98 NE5       30.06S WCI  29
EFFINGHAM*     CLOUDY    35  34  95 SE3       30.10R
MARION         PTCLDY    34  34 100 NE6       30.09R WCI  29
CENTRALIA*     CLOUDY    37  34  87 CALM      30.07F FOG
SALEM*         CLOUDY    37  32  82 E3        30.07F
$$

ILZ067-068-072-073-078-083-087-091-051500-
SOUTHEAST ILLINOIS

CITY           SKY/WX    TMP DP  RH WIND       PRES   REMARKS
LAWRENCEVILLE  CLOUDY    37  31  78 CALM      30.10S
FLORA*         CLOUDY    37  34  86 SE5       30.09S WCI  34
FAIRFIELD*     CLOUDY    36  32  85 CALM      30.09R
HARRISBURG*    CLOUDY    37  34  87 NE3       30.09R
ROBINSON*      CLOUDY    34  32  90 S5        30.11S WCI  30
CARMI*         CLOUDY    37  33  87 E7        30.08F WCI  31
$$

ABBREVIATIONS USED IN REMARKS
   TC - TEMPERATURE IN CELSIUS
  WCI - WIND CHILL INDEX
   HX - HEAT INDEX
  VSB - VISIBILITY
$$





USA.gov is the U.S. government's official web portal to all federal, state and local government web resources and services.